TIANHUI 2-02B (49072 NORAD) Tracking and Keplerian Element Data

This shows tracking and keplerian element data for the satellite.

Feedback or suggestion? Click here.




ElementValue
Catalog49072
NameTIANHUI 2-02B
Epoch Orbit473
Epoch Day262.17986317
Epoch Year2021
RAAN265.6979
Inclination97.4519
Eccentricity0.0001784
Argument of Perigee86.5176
Mean Anonmoly353.883
Mean Motion15.16770084
Decay Rate4.51E-06
L11 49072U 21074B 21262.17986317 .00000451 00000-0 26339-4 0 9998
L22 49072 97.4519 265.6979 0001784 86.5176 353.8830 15.16770084 4739

Live tracking and technical data element details for TIANHUI 2-02B (NORAD 49072). TIANHUI 2-02B can be tracked NOW for your location showing map with azimuth and elevation plus other details from your city location.

Track the satellite on the map from your city or location and see movement details for azimuth, elevation, latitude, longitude, range, height, and movement on the map or in text.







IsCatalogInMostPopularTable: catalog: 49072, numindb: 4
Update: records affected: 1



GetName: 49072 TIANHUI 2-02B

Hit Count: updated at: Fri, 24 Sep 2021 17:42:37 GMT